This is the latest recevied weather packets stored in our database for station/object AE0NK. If no packets are shown the sender has not sent any weather packets the latest 10 day(s).
| Time | Temp. | Humidity | Pressure | Rain* | Wind** | Luminosity | Snow |
|---|---|---|---|---|---|---|---|
| 1778176417 | 13.89° C | 60% | 1012.1 hPa | 0 mm | - | 893 W/m² | - |
| 1778176109 | 13.89° C | 62% | 1012.1 hPa | 0 mm | - | 888 W/m² | - |
| 1778175807 | 13.33° C | 63% | 1012.3 hPa | 0 mm | - | 889 W/m² | - |
| 1778175505 | 13.89° C | 63% | 1012.2 hPa | 0 mm | - | 886 W/m² | - |
| 1778175204 | 13.33° C | 64% | 1012.3 hPa | 0 mm | - | 889 W/m² | - |
| 1778174903 | 13.33° C | 64% | 1012.3 hPa | 0 mm | - | 882 W/m² | - |
| 1778174602 | 13.33° C | 64% | 1012.3 hPa | 0 mm | - | 868 W/m² | - |
| 1778174299 | 12.78° C | 66% | 1012.4 hPa | 0 mm | - | 884 W/m² | - |
| 1778173997 | 12.22° C | 65% | 1012.5 hPa | 0.25 mm | - | 670 W/m² | - |
| 1778173696 | 12.78° C | 68% | 1012.6 hPa | 0.25 mm | - | 287 W/m² | - |
| 1778173394 | 12.22° C | 69% | 1012.6 hPa | 0.25 mm | - | 773 W/m² | - |
| 1778173110 | 11.67° C | 71% | 1012.6 hPa | 0.25 mm | - | 455 W/m² | - |
| 1778172807 | 11.11° C | 71% | 1012.6 hPa | 0.25 mm | - | 380 W/m² | - |
| 1778172505 | 11.11° C | 72% | 1012.8 hPa | 0.25 mm | - | 399 W/m² | - |
| 1778172203 | 11.11° C | 79% | 1012.9 hPa | 0.25 mm | - | 867 W/m² | - |
| 1778171901 | 10.56° C | 76% | 1013 hPa | 0.25 mm | - | 209 W/m² | - |
| 1778171601 | 10° C | 78% | 1013.2 hPa | 0.25 mm | - | 313 W/m² | - |
| 1778170997 | 10° C | 74% | 1013.1 hPa | 0.25 mm | - | 211 W/m² | - |
| 1778170696 | 10° C | 73% | 1013.3 hPa | 0 mm | - | 88 W/m² | - |
| 1778170394 | 10° C | 73% | 1013.4 hPa | 0 mm | - | 70 W/m² | - |
| 1778170093 | 10.56° C | 72% | 1013.5 hPa | 0 mm | - | 98 W/m² | - |
| 1778169811 | 10.56° C | 69% | 1013.7 hPa | 0 mm | - | 51 W/m² | - |
| 1778169505 | 10.56° C | 67% | 1013.7 hPa | 0 mm | - | 53 W/m² | - |
| 1778169203 | 10.56° C | 67% | 1013.4 hPa | 0 mm | - | 76 W/m² | - |
| 1778168901 | 10.56° C | 67% | 1013.4 hPa | 0 mm | - | 100 W/m² | - |
* Rain latest hour (hover to see other rain measurements)
** Current wind speed in m/s (hover to see current wind gust speed)